Weather History for KODO - November, 2012

Change the Weather History Date:

Saturday, November 17, 2012

  Actual Average (KMAF) Record (KMAF)
Temperature  
Mean Temperature 56 °F 52 °F  
Max Temperature 64 °F 66 °F 84 °F (1981)
Min Temperature 48 °F 38 °F 18 °F (1959)
Degree Days  
Heating Degree Days 9 13  
Month to date heating degree days 167  
Since 1 July heating degree days 276  
Growing Degree Days 6 (Base 50)    
Moisture  
Dew Point 43 °F    
Average Humidity 63    
Maximum Humidity 82    
Minimum Humidity 46    
Precipitation  
Precipitation 0.00 in 0.03 in 1.31 in (1984)
Month to date precipitation 0.42  
Year to date precipitation 13.73  
Snow  
Snow 0.00 in - - ()
Month to date snowfall  
Since 1 July snowfall  
Since 1 September snowfall  
Snow Depth -    
Sea Level Pressure  
Sea Level Pressure 30.18 in    
Wind  
Wind Speed 10 mph (SSE)    
Max Wind Speed 17 mph    
Max Gust Speed 24 mph    
Visibility 10 miles    
Events      
T = Trace of Precipitation, MM = Missing Value Source: NWS Daily Summary

Daily Weather History Graph

Daily Weather History Graph

Search for Another Location

Airport or City:

Trip Planner

Search our weather history database for the weather conditions in past years. The results will help you decide how hot, cold, wet, or windy it might be!

Date:

Astronomy

Nov. 17, 2012 Rise Set
Actual Time 7:20 AM CST 5:48 PM CST
Civil Twilight 6:54 AM CST 6:14 PM CST
Nautical Twilight 6:24 AM CST 6:44 PM CST
Astronomical Twilight 5:55 AM CST 7:13 PM CST
Moon 11:06 AM CST (11/17) 9:59 PM CST (11/17)
Length of Visible Light 11h 20m
Length of Day
10h 28m
Waxing Crescent, 20% of the Moon is Illuminated
Nov 17
Waxing Crescent
Nov 20
First Quarter
Nov 28
Full
Dec 6
Last Quarter
Dec 13
New

Hourly Weather History & Observations

Time (CST) Temp. Dew Point Humidity Pressure Visibility Wind Dir Wind Speed Gust Speed Precip Events Conditions
12:34 AM 53.6 °F 46.4 °F 77% 30.27 in 10.0 mi SSE 11.5 mph - N/A   Scattered Clouds
12:53 AM 53.1 °F 46.0 °F 77% 30.20 in 10.0 mi SSE 6.9 mph - N/A   Partly Cloudy
1:53 AM 53.1 °F 46.0 °F 77% 30.19 in 10.0 mi SSE 5.8 mph - N/A   Scattered Clouds
2:04 AM 51.8 °F 46.4 °F 82% 30.26 in 10.0 mi SSE 8.1 mph - N/A   Mostly Cloudy
2:53 AM 53.1 °F 45.0 °F 74% 30.19 in 10.0 mi SSE 9.2 mph - N/A   Overcast
3:53 AM 53.1 °F 44.1 °F 71% 30.19 in 10.0 mi SSE 8.1 mph - N/A   Overcast
4:53 AM 51.1 °F 42.1 °F 71% 30.17 in 10.0 mi SSE 9.2 mph - N/A   Overcast
5:20 AM 50.0 °F 42.8 °F 76% 30.24 in 10.0 mi SE 6.9 mph - N/A   Scattered Clouds
5:39 AM 50.0 °F 42.8 °F 76% 30.24 in 10.0 mi SE 6.9 mph - N/A   Mostly Cloudy
5:53 AM 51.1 °F 41.0 °F 68% 30.18 in 10.0 mi SE 8.1 mph - N/A   Overcast
6:53 AM 50.0 °F 39.9 °F 68% 30.19 in 10.0 mi SE 6.9 mph - N/A   Mostly Cloudy
7:53 AM 48.9 °F 39.9 °F 71% 30.20 in 10.0 mi SE 8.1 mph - N/A   Overcast
8:53 AM 51.1 °F 39.9 °F 66% 30.23 in 10.0 mi SE 6.9 mph - N/A   Overcast
9:53 AM 55.0 °F 42.1 °F 62% 30.22 in 10.0 mi SSE 9.2 mph - N/A   Mostly Cloudy
10:01 AM 55.4 °F 42.8 °F 63% 30.29 in 10.0 mi SSE 11.5 mph - N/A   Partly Cloudy
10:53 AM 59.0 °F 44.1 °F 58% 30.22 in 10.0 mi South 13.8 mph - N/A   Clear
11:53 AM 61.0 °F 45.0 °F 56% 30.20 in 10.0 mi South 9.2 mph 20.7 mph N/A   Clear
12:53 PM 63.0 °F 45.0 °F 52% 30.16 in 10.0 mi South 13.8 mph 17.3 mph N/A   Clear
1:53 PM 64.9 °F 44.1 °F 47% 30.14 in 10.0 mi SSE 10.4 mph - N/A   Clear
2:53 PM 64.9 °F 45.0 °F 48% 30.12 in 10.0 mi South 10.4 mph - N/A   Clear
3:53 PM 64.9 °F 44.1 °F 47% 30.11 in 10.0 mi SSE 12.7 mph - N/A   Clear
4:53 PM 64.0 °F 43.0 °F 46% 30.12 in 10.0 mi SE 15.0 mph - N/A   Clear
5:53 PM 62.1 °F 43.0 °F 50% 30.12 in 10.0 mi SSE 11.5 mph - N/A   Clear
6:53 PM 61.0 °F 43.0 °F 52% 30.13 in 10.0 mi SSE 9.2 mph - N/A   Partly Cloudy
7:53 PM 61.0 °F 43.0 °F 52% 30.13 in 10.0 mi SSE 16.1 mph - N/A   Clear
8:53 PM 60.1 °F 43.0 °F 53% 30.14 in 10.0 mi SSE 13.8 mph 20.7 mph N/A   Mostly Cloudy
9:53 PM 57.9 °F 43.0 °F 58% 30.12 in 10.0 mi SSE 13.8 mph - N/A   Mostly Cloudy
10:53 PM 57.0 °F 44.1 °F 62% 30.10 in 10.0 mi South 17.3 mph 24.2 mph N/A   Scattered Clouds
11:53 PM 55.9 °F 44.1 °F 64% 30.09 in 10.0 mi South 11.5 mph - N/A   Clear